TimeMDT,TemperatureF,Dew PointF,Humidity,Sea Level PressureIn,VisibilityMPH,Wind Direction,Wind SpeedMPH,Gust SpeedMPH,PrecipitationIn,Events,Conditions,WindDirDegrees,DateUTC
12:53 AM,62.1,55.0,78,29.88,10.0,SE,11.5,-,N/A,,Clear,130,2013-07-21 06:53:00
1:53 AM,61.0,55.0,81,29.88,10.0,SSE,12.7,-,N/A,,Clear,150,2013-07-21 07:53:00
2:53 AM,60.1,55.0,83,29.88,10.0,SSE,8.1,-,N/A,,Clear,160,2013-07-21 08:53:00
3:53 AM,59.0,55.0,87,29.86,10.0,SSW,4.6,-,N/A,,Clear,200,2013-07-21 09:53:00
4:53 AM,57.9,55.0,90,29.88,10.0,Calm,Calm,-,N/A,,Clear,0,2013-07-21 10:53:00
5:53 AM,59.0,55.0,87,29.95,10.0,NNE,11.5,18.4,N/A,,Mostly Cloudy,30,2013-07-21 11:53:00
6:53 AM,61.0,57.0,87,29.96,10.0,NE,8.1,-,N/A,,Overcast,50,2013-07-21 12:53:00
7:53 AM,66.9,57.0,70,29.94,10.0,NE,4.6,-,N/A,,Overcast,50,2013-07-21 13:53:00
8:53 AM,73.0,55.0,53,29.89,10.0,ESE,15.0,-,N/A,,Clear,120,2013-07-21 14:53:00
9:53 AM,77.0,54.0,45,29.88,10.0,ESE,13.8,-,N/A,,Clear,120,2013-07-21 15:53:00
10:53 AM,81.0,55.9,42,29.88,10.0,SSE,10.4,-,N/A,,Clear,160,2013-07-21 16:53:00
11:53 AM,84.0,57.0,40,29.86,10.0,ESE,11.5,17.3,N/A,,Clear,120,2013-07-21 17:53:00
12:53 PM,87.1,57.9,37,29.83,10.0,SE,8.1,20.7,N/A,,Clear,140,2013-07-21 18:53:00
1:53 PM,90.0,57.9,34,29.81,10.0,SSE,11.5,16.1,N/A,,Clear,160,2013-07-21 19:53:00
2:53 PM,90.0,60.1,37,29.80,10.0,SW,8.1,-,N/A,,Clear,220,2013-07-21 20:53:00
3:53 PM,91.0,61.0,36,29.78,10.0,South,10.4,26.5,N/A,,Clear,180,2013-07-21 21:53:00
4:53 PM,91.9,57.9,32,29.77,10.0,SW,13.8,19.6,N/A,,Clear,220,2013-07-21 22:53:00
5:53 PM,90.0,57.9,34,29.75,10.0,South,11.5,-,N/A,,Clear,190,2013-07-21 23:53:00
6:53 PM,88.0,57.9,36,29.74,10.0,South,10.4,-,N/A,,Clear,170,2013-07-22 00:53:00
7:53 PM,84.0,57.9,41,29.73,10.0,SSE,9.2,-,N/A,,Clear,160,2013-07-22 01:53:00
8:53 PM,79.0,59.0,50,29.75,10.0,SSE,8.1,-,N/A,,Clear,160,2013-07-22 02:53:00
9:53 PM,75.9,61.0,60,29.75,10.0,SSE,6.9,-,N/A,,Clear,150,2013-07-22 03:53:00
10:53 PM,73.9,62.1,66,29.76,10.0,SSE,6.9,-,N/A,,Clear,150,2013-07-22 04:53:00
11:53 PM,73.0,63.0,71,29.77,10.0,SE,5.8,-,N/A,,Clear,130,2013-07-22 05:53:00